Regional Weather Roundup
Issued by NWS

Home | Current Version | Previous Version | Text Only | Print | Product List | Glossary Off
Versions: 1 2 3 4 5 6 7 8 9 10 11 12 13 14 15 16 17 18 19 20 21 22 23 24 25 26 27 28 29 30 31 32 33 34 35 36 37 38 39 40 41 42 43 44 45 46 47 48 49 50

000
ASUS43 KMKX 250821
RWRWI

WISCONSIN REGIONAL WEATHER ROUNDUP
NATIONAL WEATHER SERVICE MILWAUKEE/SULLIVAN WI
300 AM CDT FRI APR 25 2014

NOTE: "FAIR" INDICATES FEW OR NO CLOUDS BELOW 12,000 FEET WITH NO
SIGNIFICANT WEATHER AND/OR OBSTRUCTIONS TO VISIBILITY.

WIZ001-002-006>008-014>016-023>028-250900-
NORTHWEST WISCONSIN

CITY           SKY/WX    TMP DP  RH WIND       PRES   REMARKS
SUPERIOR ARPT  CLOUDY    32  32  99 CALM      29.69S
ASHLAND        CLOUDY    35  34  96 SW14      29.67R WCI  26
HAYWARD        CLOUDY    36  35  96 VRB5      29.68R WCI  32
SIREN          CLOUDY    37  37  99 W6        29.70S FOG     WCI  33
RICE LAKE      PTCLDY    37  35  94 W3        29.72R
LADYSMITH      CLOUDY    39  37  91 W5        29.70S
EAU CLAIRE     CLEAR     37  36  96 SW3       29.71S
MENOMONIE      MOSUNNY   38  36  94 SW3       29.71F
NEW RICHMOND   CLOUDY    35  35 100 CALM      29.72R FOG
OSCEOLA        CLOUDY    36  36 100 CALM      29.74S FOG
$$

WIZ003>005-009-010-017-018-250900-
NORTH CENTRAL WISCONSIN

CITY           SKY/WX    TMP DP  RH WIND       PRES   REMARKS
WOODRUFF       CLOUDY    37  35  93 S6        29.66S FOG     WCI  32
RHINELANDER    CLOUDY    36  35  96 S3        29.68S FOG
EAGLE RIVER    DRIZZLE   36  36 100 SE5       29.67S WCI  32
LAND O LAKES   MIX PCPN  34  34  99 SE5       29.68F WCI  30
PHILLIPS       CLOUDY    38  38 100 SW3       29.65F FOG
TOMAHAWK       CLOUDY    37  36  96 CALM      29.67F FOG
MEDFORD        CLOUDY    39  38  96 W5        29.67F
MERRILL        CLOUDY    38  38 100 CALM      29.68S FOG
$$

WIZ029-030-035-036-043>047-250900-
CENTRAL WISCONSIN

CITY           SKY/WX    TMP DP  RH WIND       PRES   REMARKS
WAUSAU         CLOUDY    39  39 100 CALM      29.67S FOG
MOSINEE        CLOUDY    37  37 100 CALM      29.69S FOG
MARSHFIELD     CLOUDY    42  39  89 NW8       29.69S
STEVENS POINT  CLOUDY    38  37  99 CALM      29.69S FOG
WAUPACA        CLOUDY    43  41  93 CALM      29.69S FOG
WAUTOMA        CLOUDY    42  42 100 W6        29.69F FOG
WISC RAPIDS    CLOUDY    42  40  92 W8        29.71R
CAMP DOUGLAS   CLOUDY    43  43 100 NW10      29.71S
$$

WIZ011>013-019>022-031-037>040-048>050-250900-
NORTHEAST WISCONSIN

CITY           SKY/WX    TMP DP  RH WIND       PRES   REMARKS
ANTIGO         CLOUDY    36  36  99 S3        29.68S FOG
STURGEON BAY   CLOUDY    37  34  87 SE10      29.72S WCI  30
GREEN BAY      CLOUDY    40  37  89 SE9       29.71R WCI  34
MANITOWOC      LGT RAIN  39  36  89 S6        29.71F WCI  35
APPLETON       CLOUDY    39  36  87 SE10      29.68F WCI  32
CLINTONVILLE   CLOUDY    41  37  87 CALM      29.68F
OSHKOSH        CLOUDY    43  38  82 CALM      29.68S
$$

WIZ032>034-041-042-053>061-250900-
SOUTHWEST WISCONSIN

CITY           SKY/WX    TMP DP  RH WIND       PRES   REMARKS
LA CROSSE      CLOUDY    44  38  79 NW7       29.73R
SPARTA         CLOUDY    43  38  83 W8        29.74R
VIROQUA        CLOUDY    42  41  99 NW7       29.72R
BOSCOBEL       CLOUDY    45  40  82 CALM      29.74R
PRAIRIE DU CHI MOCLDY    41  39  93 CALM      29.74S
PLATTEVILLE    FAIR      43  41  90 NW10      29.72S
$$

WIZ056-057-062-063-064-067-068-250900-
SOUTH CENTRAL WISCONSIN

CITY           SKY/WX    TMP DP  RH WIND       PRES   REMARKS
BARABOO/DELLS  CLOUDY    43  40  89 NW7       29.70R FOG
LONE ROCK      CLOUDY    45  40  82 W12       29.72R
WATERTOWN      CLOUDY    43  42  96 CALM      29.67S
MADISON        CLOUDY    47  44  90 NW9       29.69R
MIDDLETON      CLOUDY    47  43  87 NW12      29.69S
MONROE         CLOUDY    46  46 100 NW13G18   29.68R
JANESVILLE     CLOUDY    50  46  87 CALM      29.66S FOG
$$

WIZ051-052-058>065-066-070>072-250900-
SOUTHEAST WISCONSIN

CITY           SKY/WX    TMP DP  RH WIND       PRES   REMARKS
MILWAUKEE      CLOUDY    43  38  82 CALM      29.68R
WAUKESHA       DRIZZLE   41  37  87 CALM      29.68S
MILWAUKEE/TIMM HVY RAIN  41  36  81 N6        29.69R
RACINE         CLOUDY    44  38  79 SE6       29.69R
BURLINGTON     DRIZZLE   42  40  93 MISG      29.66F
KENOSHA        CLOUDY    44  40  85 W7        29.68R
FOND DU LAC    CLOUDY    43  39  86 S5        29.68F
SHEBOYGAN      CLOUDY    39  36  89 S3        29.70S
WEST BEND      CLOUDY    39  36  87 CALM      29.69S
JUNEAU         CLOUDY    42  40  93 CALM      29.69S FOG
$$

LSZ147-162-250900-
LAKE SUPERIOR

STATION/POSITION TIME  TEMP    WIND        PRES    WAVE
                       AIR SEA DIR/SP/G            HT/PER
                 (UTC) (F)     (DEG/KT/KT) (MB)    (FT/S)
DEVILS ISLAND    0800   34     150/  6/  8 1004.6F
PORT WING        0700   33     250/  2/  3 1004.7
SAXON HARBOR     0740          240/  5/ 10 1004.1S
$$

LMZ867-665-643>646-250900-
LAKE MICHIGAN

STATION/POSITION TIME  TEMP    WIND        PRES    WAVE
                       AIR SEA DIR/SP/G            HT/PER
                 (UTC) (F)     (DEG/KT/KT) (MB)    (FT/S)
NORTHPORT PIER   0700   38     110/ 17/ 21 1007.8F
SISTER BAY       0723   35     120/ 13/ 20   N/A
KEWAUNEE LAKESHO 0800   37      80/  2/  4 1006.8F
SHEBOYGAN LAKESH 0800   41     190/  9/ 11 1006.4S
PORT WASHINGTON  0700   40     160/  5/  6 1006.1F
MILWAUKEE LAKESH 0800   41      20/  1/  4   N/A
KENOSHA   LAKESH 0800   44     250/  5/  8   N/A
$$

TC  - TEMPERATURE IN CELSIUS
VSB - VISIBILITY IN STATUTE MILES
WCI - WIND CHILL INDEX
HX  - HEAT INDEX




USA.gov is the U.S. government's official web portal to all federal, state and local government web resources and services.